SCP
0 0 0 0 0 0 0 0 0 0 0 0 0 0 0 0 0 0 0 0 0 -0 0 0 0 0 0 0 0 0 0 0 0 0 0 0 0 0 0 0 0 0 0
0 0 0 0 0 0 0 0 0 0 0 0 0 0 0 0 0 0 0 0 0 0 0 0 0 0 0 1 1 1 1 1 0 0 0 0 0 0 0 0 0 0 0
0 0 0 0 0 0 0 0 0 0 0 0 0 0 0 0 0 0 0 0 0 0 0 -0 -0 0 -0 -0 0 0 0 0 0 0 0 0 0 0 0 0 0 0 0
0 0 0 0 0 0 0 0 0 0 0 0 0 0 0 0 0 0 0 0 0 0 0 0 0 0 0 0 0 0 0 0 0 0 0 0 0 0 0 0 0 0 0
0 0 0 0 0 0 0 0 0 0 0 0 0 0 0 0 0 0 0 0 0 0 0 0 0 0 0 0 0 0 0 0 0 0 0 0 0 0 0 0 0 0 0
0 0 0 0 0 0 0 0 0 0 0 0 0 0 0 0 0 0 0 0 0 0 0 0 0 0 0 0 0 0 0 0 0 0 0 0 0 0 0 0 0 0 0
0 0 0 0 0 0 0 0 0 0 0 0 0 0 0 0 0 0 0 0 0 0 0 0 0 0 0 0 0 0 0 0 0 0 0 0 0 0 0 0 0 0 0
0 0 0 0 0 0 0 0 0 0 0 0 0 0 0 0 0 0 0 0 0 0 0 0 0 0 0 0 0 0 0 0 0 0 0 0 0 0 0 0 0 0 0
0 0 0 0 0 0 0 0 0 0 0 0 0 0 0 0 0 0 0 0 0 0 0 0 0 0 0 0 0 0 0 0 0 0 0 0 0 0 0 0 0 0 0
0 0 0 0 0 0 0 0 0 0 0 0 0 0 0 0 0 0 0 0 0 0 0 0 0 0 0 0 0 0 0 0 0 0 0 0 0 0 0 0 0 0 0
0 0 0 0 0 0 0 0 0 0 0 0 0 0 0 0 0 0 0 0 0 0 0 0 0 0 0 0 0 0 0 0 0 0 0 0 0 0 0 0 0 0 0
0 0 0 0 0 0 0 0 0 0 0 0 0 0 0 0 0 0 0 0 0 0 0 0 0 0 0 0 0 0 0 0 0 0 0 0 0 0 0 0 0 0 0
0 0 0 0 0 0 0 0 0 0 0 0 0 0 0 0 0 0 0 0 0 0 0 0 0 0 0 0 0 0 0 0 0 0 0 0 0 0 0 0 0 0 0
0 0 0 0 0 0 0 0 0 0 0 0 0 0 0 0 0 0 0 0 0 0 0 0 0 0 0 0 0 0 0 0 0 0 0 0 0 0 0 0 0 0 0
0 0 0 0 0 0 0 0 0 0 0 0 0 0 0 0 0 0 0 0 0 0 0 0 0 0 0 0 0 0 0 0 0 0 0 0 0 0 0 0 0 0 0
0 0 0 0 0 0 0 0 0 0 0 0 0 0 0 0 0 0 0 0 0 0 0 0 0 0 0 0 0 0 0 0 0 0 0 0 0 0 0 0 0 0 0
0 0 0 0 0 0 0 0 0 0 0 0 0 0 0 0 0 0 0 0 0 0 0 0 0 0 0 0 0 0 0 0 0 0 0 0 0 0 0 0 0 0 0
0 0 0 0 0 0 0 0 0 0 0 0 0 0 0 0 0 0 0 0 0 0 0 0 0 0 0 0 0 0 0 0 0 0 0 0 0 0 0 0 0 0 0
0 0 0 0 0 0 0 0 0 0 0 0 0 0 0 0 0 0 0 0 0 0 0 0 0 0 0 0 0 0 0 0 0 0 0 0 0 0 0 0 0 0 0
0 0 0 0 0 0 0 0 0 0 0 0 0 0 0 0 0 0 0 0 0 0 0 0 0 0 0 0 -0 -0 0 -0 0 0 0 -0 -0 0 0 0 0 0 0
0 0 0 0 0 0 0 0 0 0 0 0 0 0 0 0 0 0 0 0 0 0 0 0 0 0 0 0 0 -0 0 0 0 -0 0 0 0 0 0 0 0 0 0
0 0 0 0 0 0 0 0 0 0 0 0 0 0 0 0 0 0 0 0 0 0 0 0 0 0 0 0 0 0 0 0 -0 -0 -0 0 -0 0 0 0 0 0 0
0 0 0 -0 -0 -0 0 0 0 0 0 0 0 0 0 0 0 0 0 0 0 0 0 0 0 0 0 0 0 0 0 0 0 0 0 -0 -0 0 0 0 0 0 0
-0 -0 -0 -0 -0 -0 -0 -0 0 0 0 0 0 0 0 0 0 0 0 0 0 0 0 0 0 0 0 0 0 0 0 0 0 0 0 0 -0 0 0 0 0 0 0
-0 -0 -0 -0 -0 -0 -0 -0 0 0 0 0 0 0 0 0 0 0 0 0 0 0 0 0 0 0 0 0 0 0 0 0 0 0 0 0 0 0 0 0 0 0 0
-0 0 -0 -0 -0 -0 -0 -0 0 0 0 0 0 0 0 0 0 0 0 0 0 0 0 0 0 0 0 0 0 0 0 0 0 0 0 0 0 0 0 0 0 0 0
Wind_Speed_500mb
38 34 30 37 31 27 27 22 18 16 12 15 19 21 17 14 12 14 19 19 16 12 12 10 13 17 18 20 23 22 18 15 14 12 9 8 8 8 6 6 9 13 13
36 35 32 34 27 25 25 21 21 21 21 22 21 22 20 17 15 14 16 14 11 8 9 15 17 14 10 15 23 26 25 22 21 18 15 13 11 12 12 11 12 13 15
37 35 31 31 32 32 29 27 30 32 28 21 22 22 23 18 16 15 13 8 7 5 9 16 14 9 2 7 12 23 27 27 26 21 19 19 17 15 16 17 16 16 16
43 43 37 35 35 34 34 34 32 28 22 20 23 25 23 20 15 14 13 8 6 11 12 14 20 17 17 15 13 14 22 27 29 28 27 26 25 24 24 24 24 22 20
44 45 47 46 44 44 42 38 35 29 25 22 22 22 22 19 15 11 9 7 8 11 14 15 15 19 22 23 21 18 20 21 22 22 27 26 28 28 29 29 31 29 28
47 45 45 50 49 43 38 35 33 29 24 22 24 21 22 19 16 10 6 3 2 3 5 6 8 11 13 14 15 18 19 23 25 26 28 27 30 31 31 31 30 30 32
50 49 49 49 46 42 38 33 32 28 20 19 23 30 29 22 14 12 9 3 2 2 2 2 5 5 6 9 12 17 18 18 22 19 25 23 28 29 26 32 34 31 35
46 42 43 45 43 38 34 31 34 30 20 24 35 46 30 25 22 16 10 8 9 8 7 8 8 6 5 4 6 6 4 2 4 9 13 18 21 24 21 23 29 34 39
42 40 39 39 39 38 37 35 31 28 26 32 48 32 26 17 39 27 20 17 15 12 12 12 10 10 10 11 12 15 12 9 5 7 8 9 11 14 15 16 17 21 26
40 37 37 36 35 31 29 29 27 27 29 32 57 47 28 27 28 28 30 26 21 15 13 14 11 9 9 11 15 19 21 17 11 11 13 14 14 13 13 15 17 19 22
34 32 30 30 28 27 27 24 24 26 31 32 41 61 40 27 29 42 49 39 30 24 20 17 15 9 3 8 15 21 23 21 15 13 11 12 14 15 17 18 19 21 22
18 17 21 22 21 19 21 23 23 25 26 27 29 31 39 41 45 41 46 49 39 37 30 25 18 7 3 10 19 24 25 24 18 13 15 15 15 16 18 20 22 24 26
14 16 19 20 21 20 20 21 24 23 21 21 21 25 25 24 37 39 49 56 52 51 38 30 21 12 10 18 27 30 27 25 25 26 22 21 21 23 26 28 30 30 32
17 18 19 17 16 15 16 20 23 22 18 15 16 17 17 21 28 34 46 51 55 48 40 27 18 14 19 26 29 29 27 25 25 27 30 28 29 31 33 35 39 43 45
23 17 13 16 19 19 19 19 20 21 18 15 14 12 11 15 18 24 28 44 41 41 31 25 16 17 23 25 25 25 26 26 28 27 30 36 37 38 37 43 46 48 51
14 9 11 16 19 19 21 22 22 22 17 17 14 13 15 16 15 17 21 28 35 26 27 16 13 12 15 17 21 25 28 31 33 35 39 43 41 42 49 52 53 55 55
12 10 15 20 23 21 22 22 22 21 19 18 17 14 15 13 11 11 11 11 11 10 9 4 6 13 18 24 25 29 34 36 37 37 38 44 49 51 54 55 57 57 58
13 14 17 23 23 24 22 19 21 20 18 18 18 15 15 14 13 14 9 7 8 10 7 7 14 19 22 31 38 42 45 45 42 40 44 48 50 49 49 51 52 55 58
13 16 18 20 25 23 22 20 20 21 20 15 13 9 9 7 5 4 6 7 8 11 18 20 26 31 35 39 44 48 53 54 50 48 49 47 48 47 49 55 58 63 63
9 16 18 19 21 22 20 19 17 13 11 9 7 6 5 2 3 4 7 11 17 18 23 28 34 39 43 49 58 65 67 61 60 59 55 55 59 61 60 61 64 69 69
13 16 18 21 21 23 22 18 16 11 6 4 6 7 5 6 8 10 12 13 20 26 29 36 41 46 49 55 61 66 67 65 69 69 71 70 74 74 69 72 76 77 73
28 24 21 18 23 24 19 16 15 12 9 6 3 4 8 10 9 11 17 21 27 32 38 45 45 49 53 58 64 60 58 65 78 73 79 83 81 82 85 90 90 90 78
28 24 19 22 20 20 17 15 16 12 13 9 5 5 7 11 14 18 20 24 28 37 41 46 48 45 47 54 56 57 59 66 73 75 76 93 82 96 97 101 98 95 91
20 17 16 20 14 14 17 14 14 13 14 12 13 11 16 21 23 30 38 39 41 42 39 39 43 42 54 54 45 53 59 71 79 80 69 89 90 105 109 108 104 98 91
14 13 11 11 10 12 14 13 14 17 19 19 19 21 25 34 37 43 47 49 51 46 42 36 38 50 53 45 47 57 62 67 82 80 72 89 104 104 108 111 91 95 103
12 10 11 10 10 13 14 15 19 24 30 29 29 31 35 41 45 48 54 55 55 45 39 43 46 49 38 46 46 52 59 66 66 82 78 86 90 83 103 95 94 107 109
Wind_Direction_500mb
195 193 192 197 201 202 207 211 216 225 245 264 273 269 276 288 285 247 227 215 234 240 264 288 305 277 251 241 236 233 231 227 224 225 236 256 258 264 277 265 243 232 238
209 210 205 205 209 209 216 236 251 262 277 277 267 257 266 278 290 271 246 238 229 254 296 301 297 284 263 239 231 222 222 224 229 230 235 248 258 261 253 259 259 256 252
221 223 218 215 216 225 237 252 261 269 277 273 271 261 261 267 279 286 277 265 269 273 320 300 307 308 267 202 219 227 225 230 236 238 241 249 257 261 263 257 252 257 262
221 224 225 227 230 237 247 260 267 268 268 272 276 270 258 257 259 262 262 261 259 282 283 264 259 260 248 238 249 233 235 238 242 245 246 245 249 254 259 262 255 254 254
224 230 236 239 240 244 251 256 259 258 263 266 258 254 245 228 230 232 239 251 288 287 275 240 235 247 247 248 239 243 235 238 237 244 250 250 253 254 258 262 264 257 255
229 237 243 243 242 244 245 248 250 257 261 256 249 224 199 192 186 196 232 271 289 277 279 273 250 239 242 252 250 245 242 233 246 239 243 251 255 257 260 266 272 267 264
236 243 243 238 239 240 242 248 259 261 253 233 211 176 161 169 188 172 146 122 120 122 98 150 206 196 206 244 264 263 266 274 264 267 258 253 256 258 258 250 259 254 268
238 236 234 234 236 241 244 248 259 258 235 205 193 177 153 161 180 164 145 123 115 102 97 108 118 113 95 65 35 12 12 346 272 268 270 269 273 273 275 265 262 257 264
233 235 236 237 239 242 250 254 255 247 228 198 192 182 164 178 160 161 165 142 124 115 105 93 90 88 82 66 47 28 15 9 348 312 297 285 280 280 280 277 274 267 266
234 239 243 244 246 247 251 251 247 235 222 207 196 198 197 193 173 164 166 155 145 138 117 110 107 84 63 44 18 360 0 356 345 324 314 310 302 299 294 289 289 289 285
235 243 248 252 255 247 243 239 234 224 216 210 205 210 213 202 193 179 164 163 161 153 149 145 140 149 87 10 357 348 346 341 339 328 315 299 303 306 307 304 300 297 295
217 244 243 240 237 233 228 224 219 216 213 212 217 214 219 208 204 192 176 165 164 155 164 168 177 191 302 330 331 329 326 322 319 310 303 302 307 297 296 300 302 303 303
222 225 223 226 228 220 212 208 207 211 210 212 211 215 210 206 203 198 177 168 161 159 164 183 194 211 273 317 322 322 321 316 318 318 318 320 314 310 310 311 305 300 299
209 209 206 204 200 191 188 190 198 199 199 199 193 190 193 186 182 180 176 176 162 166 172 188 210 252 289 302 312 314 313 312 309 311 313 311 315 315 310 308 309 309 308
184 184 186 191 184 176 172 172 183 184 176 171 164 160 164 164 171 179 184 178 190 170 178 195 227 269 298 313 316 316 314 314 313 312 307 309 311 310 309 310 309 307 304
159 168 184 183 178 171 171 171 172 168 180 165 155 151 146 144 151 154 158 176 195 201 196 203 250 299 327 337 337 333 328 323 315 312 308 310 308 310 312 310 308 305 302
157 179 181 178 167 158 162 163 159 156 169 165 153 153 143 131 134 135 137 144 152 168 165 188 310 323 333 333 333 332 332 326 320 313 309 307 307 309 309 309 308 308 307
162 182 182 179 164 162 150 156 151 145 145 142 137 134 131 130 123 103 100 101 85 63 45 351 326 322 329 329 331 332 333 332 327 321 315 316 315 316 314 311 311 311 311
165 168 167 171 165 154 149 144 142 139 135 125 111 108 107 107 126 100 58 46 26 4 349 349 337 336 334 334 326 327 332 331 330 328 327 325 321 319 315 313 308 306 307
177 153 155 161 158 156 157 152 146 140 126 113 98 87 50 352 319 316 331 346 341 332 333 329 330 330 331 336 336 337 333 330 326 323 326 322 324 322 316 312 310 312 309
195 182 181 157 162 165 175 171 170 151 107 103 104 80 28 332 311 303 308 324 323 320 317 318 319 320 325 329 332 331 326 325 323 325 327 325 323 320 318 316 315 312 310
209 207 206 201 180 177 175 185 190 193 186 154 119 32 358 335 335 321 325 320 314 310 307 306 311 311 316 321 324 321 322 325 323 326 326 318 319 318 318 319 318 316 316
213 205 203 210 199 205 213 216 217 197 208 211 226 292 323 337 319 307 300 298 314 308 302 302 304 305 304 316 316 317 318 317 315 317 319 312 318 317 321 318 315 316 316
177 184 204 209 211 209 198 198 206 228 238 246 266 282 304 310 305 299 293 301 304 306 302 298 299 302 305 310 307 310 310 310 308 310 316 311 318 317 319 315 314 313 310
151 161 174 186 187 200 206 202 227 250 257 259 266 276 284 288 286 281 284 288 292 305 302 296 292 297 300 300 305 302 304 304 306 310 315 317 319 317 315 309 312 311 309
141 162 179 184 197 182 202 228 243 257 267 278 283 283 287 293 295 293 292 284 286 300 293 287 291 297 296 301 302 300 301 302 303 306 316 317 314 314 312 305 304 309 309
Wind_Speed_850mb
38 34 30 37 31 27 27 22 18 16 12 15 19 21 17 14 12 14 19 19 16 12 12 10 13 17 18 20 23 22 18 15 14 12 9 8 8 8 6 6 9 13 13
36 35 32 34 27 25 25 21 21 21 21 22 21 22 20 17 15 14 16 14 11 8 9 15 17 14 10 15 23 26 25 22 21 18 15 13 11 12 12 11 12 13 15
37 35 31 31 32 32 29 27 30 32 28 21 22 22 23 18 16 15 13 8 7 5 9 16 14 9 2 7 12 23 27 27 26 21 19 19 17 15 16 17 16 16 16
43 43 37 35 35 34 34 34 32 28 22 20 23 25 23 20 15 14 13 8 6 11 12 14 20 17 17 15 13 14 22 27 29 28 27 26 25 24 24 24 24 22 20
44 45 47 46 44 44 42 38 35 29 25 22 22 22 22 19 15 11 9 7 8 11 14 15 15 19 22 23 21 18 20 21 22 22 27 26 28 28 29 29 31 29 28
47 45 45 50 49 43 38 35 33 29 24 22 24 21 22 19 16 10 6 3 2 3 5 6 8 11 13 14 15 18 19 23 25 26 28 27 30 31 31 31 30 30 32
50 49 49 49 46 42 38 33 32 28 20 19 23 30 29 22 14 12 9 3 2 2 2 2 5 5 6 9 12 17 18 18 22 19 25 23 28 29 26 32 34 31 35
46 42 43 45 43 38 34 31 34 30 20 24 35 46 30 25 22 16 10 8 9 8 7 8 8 6 5 4 6 6 4 2 4 9 13 18 21 24 21 23 29 34 39
42 40 39 39 39 38 37 35 31 28 26 32 48 32 26 17 39 27 20 17 15 12 12 12 10 10 10 11 12 15 12 9 5 7 8 9 11 14 15 16 17 21 26
40 37 37 36 35 31 29 29 27 27 29 32 57 47 28 27 28 28 30 26 21 15 13 14 11 9 9 11 15 19 21 17 11 11 13 14 14 13 13 15 17 19 22
34 32 30 30 28 27 27 24 24 26 31 32 41 61 40 27 29 42 49 39 30 24 20 17 15 9 3 8 15 21 23 21 15 13 11 12 14 15 17 18 19 21 22
18 17 21 22 21 19 21 23 23 25 26 27 29 31 39 41 45 41 46 49 39 37 30 25 18 7 3 10 19 24 25 24 18 13 15 15 15 16 18 20 22 24 26
14 16 19 20 21 20 20 21 24 23 21 21 21 25 25 24 37 39 49 56 52 51 38 30 21 12 10 18 27 30 27 25 25 26 22 21 21 23 26 28 30 30 32
17 18 19 17 16 15 16 20 23 22 18 15 16 17 17 21 28 34 46 51 55 48 40 27 18 14 19 26 29 29 27 25 25 27 30 28 29 31 33 35 39 43 45
23 17 13 16 19 19 19 19 20 21 18 15 14 12 11 15 18 24 28 44 41 41 31 25 16 17 23 25 25 25 26 26 28 27 30 36 37 38 37 43 46 48 51
14 9 11 16 19 19 21 22 22 22 17 17 14 13 15 16 15 17 21 28 35 26 27 16 13 12 15 17 21 25 28 31 33 35 39 43 41 42 49 52 53 55 55
12 10 15 20 23 21 22 22 22 21 19 18 17 14 15 13 11 11 11 11 11 10 9 4 6 13 18 24 25 29 34 36 37 37 38 44 49 51 54 55 57 57 58
13 14 17 23 23 24 22 19 21 20 18 18 18 15 15 14 13 14 9 7 8 10 7 7 14 19 22 31 38 42 45 45 42 40 44 48 50 49 49 51 52 55 58
13 16 18 20 25 23 22 20 20 21 20 15 13 9 9 7 5 4 6 7 8 11 18 20 26 31 35 39 44 48 53 54 50 48 49 47 48 47 49 55 58 63 63
9 16 18 19 21 22 20 19 17 13 11 9 7 6 5 2 3 4 7 11 17 18 23 28 34 39 43 49 58 65 67 61 60 59 55 55 59 61 60 61 64 69 69
13 16 18 21 21 23 22 18 16 11 6 4 6 7 5 6 8 10 12 13 20 26 29 36 41 46 49 55 61 66 67 65 69 69 71 70 74 74 69 72 76 77 73
28 24 21 18 23 24 19 16 15 12 9 6 3 4 8 10 9 11 17 21 27 32 38 45 45 49 53 58 64 60 58 65 78 73 79 83 81 82 85 90 90 90 78
28 24 19 22 20 20 17 15 16 12 13 9 5 5 7 11 14 18 20 24 28 37 41 46 48 45 47 54 56 57 59 66 73 75 76 93 82 96 97 101 98 95 91
20 17 16 20 14 14 17 14 14 13 14 12 13 11 16 21 23 30 38 39 41 42 39 39 43 42 54 54 45 53 59 71 79 80 69 89 90 105 109 108 104 98 91
14 13 11 11 10 12 14 13 14 17 19 19 19 21 25 34 37 43 47 49 51 46 42 36 38 50 53 45 47 57 62 67 82 80 72 89 104 104 108 111 91 95 103
12 10 11 10 10 13 14 15 19 24 30 29 29 31 35 41 45 48 54 55 55 45 39 43 46 49 38 46 46 52 59 66 66 82 78 86 90 83 103 95 94 107 109
Wind_Direction_850mb
195 193 192 197 201 202 207 211 216 225 245 264 273 269 276 288 285 247 227 215 234 240 264 288 305 277 251 241 236 233 231 227 224 225 236 256 258 264 277 265 243 232 238
209 210 205 205 209 209 216 236 251 262 277 277 267 257 266 278 290 271 246 238 229 254 296 301 297 284 263 239 231 222 222 224 229 230 235 248 258 261 253 259 259 256 252
221 223 218 215 216 225 237 252 261 269 277 273 271 261 261 267 279 286 277 265 269 273 320 300 307 308 267 202 219 227 225 230 236 238 241 249 257 261 263 257 252 257 262
221 224 225 227 230 237 247 260 267 268 268 272 276 270 258 257 259 262 262 261 259 282 283 264 259 260 248 238 249 233 235 238 242 245 246 245 249 254 259 262 255 254 254
224 230 236 239 240 244 251 256 259 258 263 266 258 254 245 228 230 232 239 251 288 287 275 240 235 247 247 248 239 243 235 238 237 244 250 250 253 254 258 262 264 257 255
229 237 243 243 242 244 245 248 250 257 261 256 249 224 199 192 186 196 232 271 289 277 279 273 250 239 242 252 250 245 242 233 246 239 243 251 255 257 260 266 272 267 264
236 243 243 238 239 240 242 248 259 261 253 233 211 176 161 169 188 172 146 122 120 122 98 150 206 196 206 244 264 263 266 274 264 267 258 253 256 258 258 250 259 254 268
238 236 234 234 236 241 244 248 259 258 235 205 193 177 153 161 180 164 145 123 115 102 97 108 118 113 95 65 35 12 12 346 272 268 270 269 273 273 275 265 262 257 264
233 235 236 237 239 242 250 254 255 247 228 198 192 182 164 178 160 161 165 142 124 115 105 93 90 88 82 66 47 28 15 9 348 312 297 285 280 280 280 277 274 267 266
234 239 243 244 246 247 251 251 247 235 222 207 196 198 197 193 173 164 166 155 145 138 117 110 107 84 63 44 18 360 0 356 345 324 314 310 302 299 294 289 289 289 285
235 243 248 252 255 247 243 239 234 224 216 210 205 210 213 202 193 179 164 163 161 153 149 145 140 149 87 10 357 348 346 341 339 328 315 299 303 306 307 304 300 297 295
217 244 243 240 237 233 228 224 219 216 213 212 217 214 219 208 204 192 176 165 164 155 164 168 177 191 302 330 331 329 326 322 319 310 303 302 307 297 296 300 302 303 303
222 225 223 226 228 220 212 208 207 211 210 212 211 215 210 206 203 198 177 168 161 159 164 183 194 211 273 317 322 322 321 316 318 318 318 320 314 310 310 311 305 300 299
209 209 206 204 200 191 188 190 198 199 199 199 193 190 193 186 182 180 176 176 162 166 172 188 210 252 289 302 312 314 313 312 309 311 313 311 315 315 310 308 309 309 308
184 184 186 191 184 176 172 172 183 184 176 171 164 160 164 164 171 179 184 178 190 170 178 195 227 269 298 313 316 316 314 314 313 312 307 309 311 310 309 310 309 307 304
159 168 184 183 178 171 171 171 172 168 180 165 155 151 146 144 151 154 158 176 195 201 196 203 250 299 327 337 337 333 328 323 315 312 308 310 308 310 312 310 308 305 302
157 179 181 178 167 158 162 163 159 156 169 165 153 153 143 131 134 135 137 144 152 168 165 188 310 323 333 333 333 332 332 326 320 313 309 307 307 309 309 309 308 308 307
162 182 182 179 164 162 150 156 151 145 145 142 137 134 131 130 123 103 100 101 85 63 45 351 326 322 329 329 331 332 333 332 327 321 315 316 315 316 314 311 311 311 311
165 168 167 171 165 154 149 144 142 139 135 125 111 108 107 107 126 100 58 46 26 4 349 349 337 336 334 334 326 327 332 331 330 328 327 325 321 319 315 313 308 306 307
177 153 155 161 158 156 157 152 146 140 126 113 98 87 50 352 319 316 331 346 341 332 333 329 330 330 331 336 336 337 333 330 326 323 326 322 324 322 316 312 310 312 309
195 182 181 157 162 165 175 171 170 151 107 103 104 80 28 332 311 303 308 324 323 320 317 318 319 320 325 329 332 331 326 325 323 325 327 325 323 320 318 316 315 312 310
209 207 206 201 180 177 175 185 190 193 186 154 119 32 358 335 335 321 325 320 314 310 307 306 311 311 316 321 324 321 322 325 323 326 326 318 319 318 318 319 318 316 316
213 205 203 210 199 205 213 216 217 197 208 211 226 292 323 337 319 307 300 298 314 308 302 302 304 305 304 316 316 317 318 317 315 317 319 312 318 317 321 318 315 316 316
177 184 204 209 211 209 198 198 206 228 238 246 266 282 304 310 305 299 293 301 304 306 302 298 299 302 305 310 307 310 310 310 308 310 316 311 318 317 319 315 314 313 310
151 161 174 186 187 200 206 202 227 250 257 259 266 276 284 288 286 281 284 288 292 305 302 296 292 297 300 300 305 302 304 304 306 310 315 317 319 317 315 309 312 311 309
141 162 179 184 197 182 202 228 243 257 267 278 283 283 287 293 295 293 292 284 286 300 293 287 291 297 296 301 302 300 301 302 303 306 316 317 314 314 312 305 304 309 309